EXS48DQ EGSS-LGIR

Flight info

Callsign EXS48DQ
Flight time 3h 27m
Altitude 35000
Route CLN5S CLN M84 KONAN DCT KOK DCT REMBA DCT ARCKY DCT LIRSU DCT VIBOM DCT NOMBO DCT RIDAR DCT RADIZ DCT NIPEL DCT ZARVE DCT KOTOR DCT TUPUS DCT MONID DCT EMKES DCT GACMO DCT POD DCT ODRAS DCT PINDO UL607 GIVIS UT514 XAVIS XAVIS1A
Aircraft B738/M-SDFGHIJ1J3J4J7M3RWXYZ/LB1D1

Departure

Time 2026-05-04 12:44
Airport London Stansted Airport (EGSS)

Arrival

Time 2026-05-04 16:12
Airport Heraklion International Nikos Kazantzakis Airport (LGIR)
Time Latitude Longitude Altitude Speed Heading
2026-05-04 12:10 51.88907 0.25605 341 ft 0 kts 223°
2026-05-04 12:28 51.88918 0.25621 341 ft 2 kts 222°
2026-05-04 12:29 51.88928 0.25637 342 ft 2 kts 223°
2026-05-04 12:29 51.88939 0.25654 342 ft 2 kts 222°
2026-05-04 12:29 51.88950 0.25670 342 ft 1 kts 223°
2026-05-04 12:29 51.88948 0.25665 342 ft 2 kts 234°
2026-05-04 12:30 51.88948 0.25634 342 ft 2 kts 296°
2026-05-04 12:30 51.88963 0.25608 342 ft 1 kts 313°
2026-05-04 12:30 51.88964 0.25606 342 ft 0 kts 313°
2026-05-04 12:30 51.88965 0.25606 342 ft 0 kts 313°
2026-05-04 12:34 51.88965 0.25605 342 ft 0 kts 313°
2026-05-04 12:34 51.88980 0.25578 342 ft 6 kts 313°
2026-05-04 12:34 51.89017 0.25513 342 ft 8 kts 312°
2026-05-04 12:34 51.89056 0.25445 343 ft 8 kts 312°
2026-05-04 12:35 51.89100 0.25368 343 ft 9 kts 313°
2026-05-04 12:35 51.89146 0.25287 344 ft 9 kts 308°
2026-05-04 12:35 51.89128 0.25199 343 ft 11 kts 223°
2026-05-04 12:35 51.89053 0.25086 341 ft 17 kts 223°
2026-05-04 12:36 51.88954 0.24937 340 ft 19 kts 223°
2026-05-04 12:36 51.88854 0.24787 338 ft 19 kts 222°
2026-05-04 12:36 51.88756 0.24640 337 ft 19 kts 223°
2026-05-04 12:36 51.88655 0.24488 337 ft 19 kts 223°
2026-05-04 12:37 51.88555 0.24339 337 ft 19 kts 224°
2026-05-04 12:37 51.88459 0.24195 338 ft 17 kts 222°
2026-05-04 12:37 51.88367 0.24057 339 ft 18 kts 223°
2026-05-04 12:37 51.88270 0.23910 340 ft 19 kts 223°
2026-05-04 12:38 51.88167 0.23756 341 ft 20 kts 223°
2026-05-04 12:38 51.88059 0.23595 342 ft 21 kts 223°
2026-05-04 12:38 51.87949 0.23430 343 ft 21 kts 223°
2026-05-04 12:38 51.87839 0.23265 343 ft 21 kts 223°
2026-05-04 12:39 51.87745 0.23122 342 ft 11 kts 227°
2026-05-04 12:39 51.87747 0.23010 342 ft 10 kts 310°
2026-05-04 12:39 51.87796 0.22923 341 ft 10 kts 313°
2026-05-04 12:39 51.87843 0.22842 341 ft 9 kts 313°
2026-05-04 12:40 51.87870 0.22794 341 ft 0 kts 313°
2026-05-04 12:42 51.87882 0.22774 340 ft 6 kts 313°
2026-05-04 12:42 51.87931 0.22687 340 ft 11 kts 311°
2026-05-04 12:43 51.87960 0.22668 340 ft 3 kts 43°
2026-05-04 12:43 51.88000 0.22730 340 ft 26 kts 43°
2026-05-04 12:43 51.88316 0.23206 342 ft 94 kts 42°
2026-05-04 12:43 51.88933 0.24132 339 ft 149 kts 43°
2026-05-04 12:44 51.89784 0.25403 637 ft 168 kts 42°
2026-05-04 12:44 51.90641 0.26684 1292 ft 169 kts 41°
2026-05-04 12:44 51.91422 0.27993 1934 ft 165 kts 56°
2026-05-04 12:44 51.91768 0.29854 2227 ft 185 kts 88°
2026-05-04 12:45 51.91544 0.31994 2623 ft 200 kts 108°
2026-05-04 12:45 51.90963 0.34130 3058 ft 214 kts 114°
2026-05-04 12:45 51.90294 0.36360 3497 ft 228 kts 114°
2026-05-04 12:45 51.89606 0.38676 4144 ft 232 kts 114°
2026-05-04 12:46 51.88894 0.41103 4549 ft 248 kts 114°
2026-05-04 12:46 51.88136 0.43692 4984 ft 262 kts 114°
2026-05-04 12:46 51.87338 0.46413 5585 ft 269 kts 115°
2026-05-04 12:46 51.86527 0.49174 6226 ft 275 kts 115°
2026-05-04 12:47 51.85699 0.51989 6908 ft 278 kts 115°
2026-05-04 12:47 51.84860 0.54826 7579 ft 282 kts 116°
2026-05-04 12:47 51.83887 0.57536 8227 ft 284 kts 127°
2026-05-04 12:47 51.82657 0.60039 8876 ft 287 kts 130°
2026-05-04 12:48 51.81373 0.62575 9541 ft 290 kts 130°
2026-05-04 12:48 51.80122 0.65064 10155 ft 293 kts 130°
2026-05-04 12:48 51.78797 0.67707 10582 ft 305 kts 130°
2026-05-04 12:48 51.77433 0.70434 10938 ft 319 kts 130°
2026-05-04 12:49 51.76014 0.73272 11238 ft 335 kts 130°
2026-05-04 12:49 51.74519 0.76258 11664 ft 346 kts 130°
2026-05-04 12:49 51.72995 0.79297 12239 ft 352 kts 130°
2026-05-04 12:49 51.71462 0.82349 12883 ft 356 kts 130°
2026-05-04 12:50 51.69902 0.85449 13511 ft 360 kts 130°
2026-05-04 12:50 51.68315 0.88597 14206 ft 363 kts 130°
2026-05-04 12:50 51.66720 0.91760 14907 ft 366 kts 130°
2026-05-04 12:50 51.65099 0.94970 15595 ft 369 kts 130°
2026-05-04 12:51 51.63469 0.98194 16274 ft 372 kts 130°
2026-05-04 12:51 51.61836 1.01421 16930 ft 375 kts 130°
2026-05-04 12:51 51.60181 1.04680 17600 ft 377 kts 130°
2026-05-04 12:51 51.58536 1.07919 18260 ft 379 kts 130°
2026-05-04 12:52 51.56853 1.11231 18864 ft 383 kts 130°
2026-05-04 12:52 51.55172 1.14532 19429 ft 387 kts 131°
2026-05-04 12:52 51.53457 1.17893 20010 ft 390 kts 131°
2026-05-04 12:52 51.51724 1.21286 20583 ft 393 kts 131°
2026-05-04 12:53 51.49965 1.24727 21113 ft 397 kts 131°
2026-05-04 12:53 51.48257 1.28197 21629 ft 402 kts 127°
2026-05-04 12:53 51.46852 1.32171 22103 ft 409 kts 118°
2026-05-04 12:53 51.45656 1.36350 22596 ft 413 kts 116°
2026-05-04 12:54 51.44502 1.40540 23097 ft 417 kts 116°
2026-05-04 12:54 51.43326 1.44845 23561 ft 420 kts 116°
2026-05-04 12:54 51.42145 1.49176 24059 ft 423 kts 117°
2026-05-04 12:54 51.40969 1.53478 24549 ft 426 kts 117°
2026-05-04 12:55 51.39786 1.57795 25034 ft 428 kts 117°
2026-05-04 12:55 51.38571 1.62207 25529 ft 430 kts 117°
2026-05-04 12:55 51.37362 1.66591 26060 ft 430 kts 117°
2026-05-04 12:55 51.36150 1.70965 26447 ft 434 kts 118°
2026-05-04 12:56 51.34917 1.75406 26885 ft 436 kts 118°
2026-05-04 12:56 51.33675 1.79866 27283 ft 439 kts 118°
2026-05-04 12:56 51.32442 1.84288 27831 ft 438 kts 118°
2026-05-04 12:56 51.31215 1.88814 28136 ft 444 kts 116°
2026-05-04 12:57 51.30108 1.93411 28520 ft 448 kts 113°
2026-05-04 12:57 51.29194 1.98159 28937 ft 452 kts 109°
2026-05-04 12:57 51.28403 2.03015 29337 ft 454 kts 108°
2026-05-04 12:57 51.27663 2.07916 29747 ft 456 kts 107°
2026-05-04 12:58 51.26948 2.12821 30388 ft 452 kts 107°
2026-05-04 12:58 51.26249 2.17727 31032 ft 447 kts 107°
2026-05-04 12:58 51.25573 2.22514 31395 ft 448 kts 107°
2026-05-04 12:58 51.24877 2.27445 31777 ft 448 kts 107°
2026-05-04 12:59 51.24202 2.32239 32176 ft 447 kts 107°
2026-05-04 12:59 51.23517 2.37101 32520 ft 447 kts 107°
2026-05-04 12:59 51.22837 2.41918 32790 ft 449 kts 107°
2026-05-04 12:59 51.22147 2.46807 33124 ft 449 kts 107°
2026-05-04 13:00 51.21401 2.51602 33515 ft 445 kts 110°
2026-05-04 13:00 51.20422 2.56303 33847 ft 442 kts 114°
2026-05-04 13:00 51.19358 2.60894 34146 ft 442 kts 115°
2026-05-04 13:00 51.18288 2.65374 34394 ft 443 kts 116°
2026-05-04 13:01 51.17213 2.69827 34706 ft 442 kts 116°
2026-05-04 13:01 51.16118 2.74346 34927 ft 442 kts 116°
2026-05-04 13:01 51.15036 2.78799 34968 ft 444 kts 116°
2026-05-04 13:02 51.12800 2.87993 34970 ft 441 kts 116°
2026-05-04 13:02 51.10614 2.96958 34966 ft 440 kts 116°
2026-05-04 13:03 51.08403 3.05994 34965 ft 440 kts 116°
2026-05-04 13:03 51.06173 3.15064 34961 ft 442 kts 116°
2026-05-04 13:04 51.03925 3.24179 34956 ft 442 kts 116°
2026-05-04 13:04 51.01676 3.33258 34952 ft 443 kts 116°
2026-05-04 13:05 50.99417 3.42343 34950 ft 441 kts 116°
2026-05-04 13:05 50.97159 3.51394 34947 ft 440 kts 116°
2026-05-04 13:06 50.94892 3.60435 34947 ft 441 kts 116°
2026-05-04 13:06 50.92771 3.68862 34947 ft 439 kts 117°
2026-05-04 13:07 50.90569 3.77586 34947 ft 440 kts 117°
2026-05-04 13:07 50.88352 3.86333 34947 ft 440 kts 117°
2026-05-04 13:08 50.86122 3.95091 34947 ft 439 kts 117°
2026-05-04 13:08 50.83825 4.04071 34947 ft 441 kts 117°
2026-05-04 13:09 50.81521 4.13047 34946 ft 440 kts 117°
2026-05-04 13:09 50.79223 4.21966 34951 ft 438 kts 117°
2026-05-04 13:10 50.76910 4.30899 34958 ft 441 kts 117°
2026-05-04 13:10 50.74591 4.39799 34941 ft 439 kts 118°
2026-05-04 13:11 50.72255 4.48736 34941 ft 441 kts 117°
2026-05-04 13:11 50.69935 4.57627 34968 ft 439 kts 118°
2026-05-04 13:12 50.67603 4.66518 34965 ft 439 kts 118°
2026-05-04 13:12 50.65296 4.75289 34965 ft 437 kts 119°
2026-05-04 13:13 50.62994 4.83990 34963 ft 438 kts 119°
2026-05-04 13:13 50.60679 4.92708 34957 ft 438 kts 118°
2026-05-04 13:14 50.58313 5.01586 34956 ft 438 kts 119°
2026-05-04 13:14 50.55952 5.10391 34955 ft 439 kts 119°
2026-05-04 13:15 50.53577 5.19216 34955 ft 441 kts 119°
2026-05-04 13:15 50.51181 5.28097 34963 ft 442 kts 118°
2026-05-04 13:16 50.48777 5.36971 34966 ft 442 kts 118°
2026-05-04 13:16 50.46369 5.45821 34972 ft 441 kts 119°
2026-05-04 13:17 50.43949 5.54675 34970 ft 443 kts 119°
2026-05-04 13:17 50.41528 5.63501 34968 ft 442 kts 119°
2026-05-04 13:18 50.39163 5.72103 34969 ft 441 kts 120°
2026-05-04 13:18 50.36741 5.80868 34969 ft 441 kts 120°
2026-05-04 13:19 50.34301 5.89593 34966 ft 442 kts 120°
2026-05-04 13:19 50.31801 5.98374 34970 ft 443 kts 120°
2026-05-04 13:20 50.29308 6.07126 34964 ft 444 kts 120°
2026-05-04 13:20 50.26800 6.15941 34965 ft 444 kts 120°
2026-05-04 13:21 50.24299 6.24722 34967 ft 443 kts 120°
2026-05-04 13:21 50.21801 6.33466 34969 ft 444 kts 120°
2026-05-04 13:22 50.19299 6.42182 34974 ft 445 kts 120°
2026-05-04 13:22 50.16784 6.50932 34979 ft 444 kts 120°
2026-05-04 13:23 50.14317 6.59523 34992 ft 445 kts 120°
2026-05-04 13:23 50.11839 6.68142 34994 ft 444 kts 120°
2026-05-04 13:24 50.09325 6.76850 34992 ft 444 kts 120°
2026-05-04 13:24 50.06810 6.85529 34993 ft 445 kts 120°
2026-05-04 13:25 50.02978 6.98687 34990 ft 446 kts 120°
2026-05-04 13:25 50.00427 7.07424 34991 ft 445 kts 120°
2026-05-04 13:26 49.97853 7.16190 34991 ft 446 kts 120°
2026-05-04 13:26 49.95284 7.24906 34993 ft 445 kts 120°
2026-05-04 13:27 49.92709 7.33604 34990 ft 445 kts 120°
2026-05-04 13:27 49.90140 7.42262 34984 ft 446 kts 119°
2026-05-04 13:28 49.87698 7.50464 34982 ft 446 kts 120°
2026-05-04 13:28 49.85053 7.59320 34980 ft 447 kts 120°
2026-05-04 13:29 49.82465 7.67964 34980 ft 446 kts 120°
2026-05-04 13:29 49.79868 7.76596 34972 ft 447 kts 120°
2026-05-04 13:30 49.77237 7.85310 34967 ft 448 kts 120°
2026-05-04 13:30 49.74607 7.93986 34964 ft 448 kts 120°
2026-05-04 13:31 49.71962 8.02676 34963 ft 449 kts 120°
2026-05-04 13:31 49.69284 8.11446 34959 ft 448 kts 120°
2026-05-04 13:32 49.66628 8.20111 34961 ft 447 kts 120°
2026-05-04 13:32 49.63953 8.28797 34959 ft 450 kts 120°
2026-05-04 13:33 49.61270 8.37490 34958 ft 448 kts 120°
2026-05-04 13:33 49.58586 8.46160 34957 ft 449 kts 120°
2026-05-04 13:34 49.55894 8.54827 34960 ft 449 kts 120°
2026-05-04 13:34 49.53209 8.63436 34967 ft 449 kts 120°
2026-05-04 13:35 49.49217 8.76185 34976 ft 448 kts 120°
2026-05-04 13:36 49.46505 8.84805 34962 ft 449 kts 120°
2026-05-04 13:36 49.43785 8.93422 34962 ft 448 kts 120°
2026-05-04 13:37 49.41051 9.02049 34956 ft 449 kts 120°
2026-05-04 13:37 49.38325 9.10620 34949 ft 448 kts 120°
2026-05-04 13:38 49.35575 9.19225 34940 ft 449 kts 120°
2026-05-04 13:38 49.32831 9.27768 34945 ft 449 kts 120°
2026-05-04 13:39 49.30056 9.36378 34950 ft 450 kts 120°
2026-05-04 13:39 49.27265 9.45014 34956 ft 450 kts 120°
2026-05-04 13:40 49.24495 9.53553 34958 ft 450 kts 120°
2026-05-04 13:40 49.21750 9.61990 34966 ft 451 kts 120°
2026-05-04 13:41 49.19018 9.70363 34973 ft 450 kts 120°
2026-05-04 13:41 49.16245 9.78830 34975 ft 450 kts 120°
2026-05-04 13:42 49.12046 9.91591 34976 ft 451 kts 120°
2026-05-04 13:42 49.09131 10.00027 34973 ft 447 kts 127°
2026-05-04 13:43 49.05343 10.07032 34974 ft 442 kts 137°
2026-05-04 13:43 49.01197 10.13882 34969 ft 441 kts 136°
2026-05-04 13:44 48.97033 10.20809 34968 ft 441 kts 136°
2026-05-04 13:44 48.92921 10.27642 34963 ft 442 kts 136°
2026-05-04 13:45 48.88822 10.34433 34963 ft 441 kts 136°
2026-05-04 13:45 48.84731 10.41185 34963 ft 442 kts 136°
2026-05-04 13:46 48.80584 10.48013 34957 ft 440 kts 136°
2026-05-04 13:46 48.76450 10.54797 34960 ft 441 kts 136°
2026-05-04 13:47 48.72279 10.61623 34958 ft 441 kts 136°
2026-05-04 13:47 48.68150 10.68360 34958 ft 439 kts 137°
2026-05-04 13:48 48.64027 10.75071 34961 ft 439 kts 137°
2026-05-04 13:48 48.59854 10.81850 34960 ft 439 kts 137°
2026-05-04 13:49 48.55756 10.88491 34962 ft 438 kts 137°
2026-05-04 13:49 48.51593 10.95220 34962 ft 438 kts 137°
2026-05-04 13:50 48.47442 11.01909 34961 ft 438 kts 137°
2026-05-04 13:50 48.43275 11.08603 34960 ft 438 kts 137°
2026-05-04 13:51 48.39186 11.15160 34959 ft 438 kts 136°
2026-05-04 13:51 48.35023 11.21818 34959 ft 439 kts 137°
2026-05-04 13:52 48.28815 11.31718 34956 ft 439 kts 136°
2026-05-04 13:53 48.24654 11.38330 34952 ft 439 kts 136°
2026-05-04 13:53 48.20463 11.44974 34951 ft 438 kts 136°
2026-05-04 13:54 48.14182 11.54895 34949 ft 438 kts 136°
2026-05-04 13:55 48.07877 11.64821 34943 ft 438 kts 136°
2026-05-04 13:55 48.01760 11.74414 34942 ft 438 kts 137°
2026-05-04 13:56 47.97585 11.80940 34952 ft 438 kts 137°
2026-05-04 13:57 47.92306 11.90038 34954 ft 440 kts 134°
2026-05-04 13:58 47.84884 12.02644 34978 ft 440 kts 134°
2026-05-04 13:58 47.78693 12.12842 34994 ft 438 kts 137°
2026-05-04 13:59 47.74367 12.19211 35007 ft 437 kts 139°
2026-05-04 14:00 47.67856 12.28495 35048 ft 438 kts 139°
2026-05-04 14:00 47.61294 12.37833 35053 ft 437 kts 139°
2026-05-04 14:01 47.56899 12.44088 35023 ft 438 kts 138°
2026-05-04 14:02 47.50313 12.53444 35022 ft 438 kts 138°
2026-05-04 14:02 47.45917 12.59672 35045 ft 438 kts 138°
2026-05-04 14:03 47.41601 12.65774 35084 ft 438 kts 139°
2026-05-04 14:03 47.37301 12.71838 35061 ft 438 kts 139°
2026-05-04 14:04 47.30698 12.81120 35102 ft 440 kts 139°
2026-05-04 14:04 47.26281 12.87313 35108 ft 439 kts 139°
2026-05-04 14:05 47.19653 12.96576 35123 ft 438 kts 139°
2026-05-04 14:06 47.15268 13.02685 35123 ft 438 kts 139°
2026-05-04 14:06 47.10842 13.08840 35139 ft 437 kts 139°
2026-05-04 14:07 47.06461 13.14916 35121 ft 438 kts 139°
2026-05-04 14:07 47.02059 13.21006 35139 ft 438 kts 138°
2026-05-04 14:08 46.97627 13.27122 35131 ft 439 kts 138°
2026-05-04 14:08 46.93175 13.33250 35126 ft 439 kts 138°
2026-05-04 14:09 46.86665 13.42185 35122 ft 439 kts 139°
2026-05-04 14:10 46.80068 13.51210 35124 ft 440 kts 138°
2026-05-04 14:10 46.75592 13.57313 35122 ft 440 kts 138°
2026-05-04 14:11 46.71096 13.63430 35117 ft 441 kts 138°
2026-05-04 14:11 46.64523 13.72345 35100 ft 441 kts 139°
2026-05-04 14:12 46.60027 13.78428 35099 ft 441 kts 139°
2026-05-04 14:13 46.53299 13.87501 35104 ft 442 kts 139°
2026-05-04 14:13 46.48839 13.93498 35100 ft 442 kts 139°
2026-05-04 14:14 46.44310 13.99575 35103 ft 442 kts 139°
2026-05-04 14:14 46.37546 14.08621 35101 ft 442 kts 139°
2026-05-04 14:15 46.28511 14.20659 35094 ft 443 kts 139°
2026-05-04 14:16 46.21698 14.29696 35077 ft 444 kts 139°
2026-05-04 14:17 46.14912 14.38669 35065 ft 444 kts 139°
2026-05-04 14:18 46.08063 14.47692 35063 ft 446 kts 139°
2026-05-04 14:19 45.98943 14.59657 35059 ft 448 kts 139°
2026-05-04 14:19 45.94471 14.65503 35062 ft 448 kts 139°
2026-05-04 14:20 45.89975 14.71370 35062 ft 447 kts 139°
2026-05-04 14:20 45.85477 14.77224 35057 ft 447 kts 139°
2026-05-04 14:21 45.78589 14.86162 35065 ft 448 kts 139°
2026-05-04 14:21 45.73966 14.92144 35065 ft 450 kts 139°
2026-05-04 14:22 45.69300 14.98167 35068 ft 449 kts 139°
2026-05-04 14:22 45.65078 15.03604 35066 ft 451 kts 139°
2026-05-04 14:23 45.58049 15.12634 35061 ft 450 kts 139°
2026-05-04 14:24 45.53402 15.18586 35054 ft 450 kts 139°
2026-05-04 14:24 45.48782 15.24489 35045 ft 449 kts 139°
2026-05-04 14:25 45.44093 15.30465 35048 ft 451 kts 139°
2026-05-04 14:25 45.37098 15.39357 35047 ft 451 kts 139°
2026-05-04 14:26 45.32406 15.45304 35045 ft 451 kts 139°
2026-05-04 14:26 45.27726 15.51223 35047 ft 452 kts 139°
2026-05-04 14:27 45.22984 15.57204 35048 ft 453 kts 139°
2026-05-04 14:27 45.18293 15.63110 35054 ft 453 kts 139°
2026-05-04 14:28 45.13695 15.68883 35056 ft 452 kts 139°
2026-05-04 14:28 45.08989 15.74781 35049 ft 452 kts 139°
2026-05-04 14:29 44.99580 15.86531 35050 ft 452 kts 139°
2026-05-04 14:30 44.94827 15.92444 35050 ft 454 kts 139°
2026-05-04 14:31 44.87816 16.01144 35061 ft 454 kts 139°
2026-05-04 14:32 44.78345 16.12851 35073 ft 455 kts 139°
2026-05-04 14:32 44.73598 16.18698 35084 ft 453 kts 139°
2026-05-04 14:33 44.68897 16.24475 35095 ft 455 kts 139°
2026-05-04 14:33 44.64123 16.30328 35097 ft 456 kts 139°
2026-05-04 14:34 44.59373 16.36141 35100 ft 456 kts 139°
2026-05-04 14:34 44.54557 16.42020 35101 ft 456 kts 139°
2026-05-04 14:35 44.49809 16.47803 35104 ft 456 kts 139°
2026-05-04 14:35 44.45002 16.53645 35102 ft 456 kts 139°
2026-05-04 14:36 44.40189 16.59481 35110 ft 456 kts 139°
2026-05-04 14:36 44.35418 16.65252 35117 ft 458 kts 139°
2026-05-04 14:37 44.30701 16.70948 35121 ft 458 kts 139°
2026-05-04 14:37 44.25868 16.76770 35127 ft 458 kts 139°
2026-05-04 14:38 44.21070 16.82537 35134 ft 458 kts 139°
2026-05-04 14:38 44.16214 16.88357 35134 ft 458 kts 139°
2026-05-04 14:39 44.11388 16.94128 35141 ft 461 kts 139°
2026-05-04 14:39 44.06522 16.99935 35152 ft 462 kts 139°
2026-05-04 14:40 43.99312 17.08516 35153 ft 460 kts 139°
2026-05-04 14:40 43.94499 17.14230 35148 ft 460 kts 139°
2026-05-04 14:41 43.89722 17.19887 35144 ft 462 kts 139°
2026-05-04 14:42 43.80000 17.31363 35131 ft 460 kts 139°
2026-05-04 14:42 43.75104 17.37121 35132 ft 462 kts 139°
2026-05-04 14:43 43.70201 17.42876 35127 ft 462 kts 139°
2026-05-04 14:43 43.65312 17.48602 35132 ft 462 kts 139°
2026-05-04 14:44 43.60390 17.54353 35134 ft 464 kts 139°
2026-05-04 14:44 43.55470 17.60089 35118 ft 463 kts 139°
2026-05-04 14:45 43.50581 17.65777 35115 ft 464 kts 139°
2026-05-04 14:45 43.45686 17.71462 35105 ft 465 kts 139°
2026-05-04 14:46 43.40754 17.77175 35098 ft 465 kts 139°
2026-05-04 14:46 43.35819 17.82879 35111 ft 465 kts 139°
2026-05-04 14:47 43.30824 17.88641 35122 ft 467 kts 139°
2026-05-04 14:47 43.25898 17.94309 35119 ft 467 kts 139°
2026-05-04 14:48 43.20927 18.00017 35117 ft 467 kts 139°
2026-05-04 14:48 43.15934 18.05738 35122 ft 467 kts 139°
2026-05-04 14:49 43.10919 18.11472 35117 ft 467 kts 139°
2026-05-04 14:49 43.05940 18.17150 35115 ft 468 kts 139°
2026-05-04 14:50 43.00946 18.22832 35118 ft 468 kts 139°
2026-05-04 14:50 42.95954 18.28503 35119 ft 469 kts 139°
2026-05-04 14:51 42.90985 18.34131 35121 ft 468 kts 139°
2026-05-04 14:51 42.85999 18.39767 35124 ft 468 kts 139°
2026-05-04 14:52 42.80991 18.45418 35127 ft 469 kts 139°
2026-05-04 14:52 42.75952 18.51094 35122 ft 470 kts 139°
2026-05-04 14:53 42.70938 18.56728 35121 ft 470 kts 139°
2026-05-04 14:53 42.65913 18.62362 35117 ft 470 kts 139°
2026-05-04 14:54 42.61218 18.67613 35111 ft 469 kts 140°
2026-05-04 14:54 42.55972 18.73469 35110 ft 471 kts 140°
2026-05-04 14:55 42.50870 18.79150 35111 ft 471 kts 139°
2026-05-04 14:55 42.45826 18.84754 35116 ft 471 kts 139°
2026-05-04 14:56 42.40788 18.90341 35115 ft 473 kts 139°
2026-05-04 14:56 42.35746 18.95923 35114 ft 474 kts 139°
2026-05-04 14:57 42.30660 19.01539 35111 ft 474 kts 139°
2026-05-04 14:57 42.25600 19.07112 35100 ft 475 kts 139°
2026-05-04 14:58 42.20445 19.12778 35091 ft 476 kts 139°
2026-05-04 14:58 42.15315 19.18406 35087 ft 476 kts 139°
2026-05-04 14:59 42.10202 19.24005 35081 ft 474 kts 139°
2026-05-04 15:00 42.02506 19.32408 35092 ft 475 kts 139°
2026-05-04 15:00 41.97416 19.37949 35096 ft 472 kts 139°
2026-05-04 15:01 41.89819 19.46201 35087 ft 476 kts 139°
2026-05-04 15:01 41.84593 19.51865 35091 ft 477 kts 139°
2026-05-04 15:02 41.79434 19.57439 35093 ft 474 kts 139°
2026-05-04 15:02 41.74303 19.62972 35100 ft 474 kts 139°
2026-05-04 15:03 41.69350 19.68303 35108 ft 475 kts 139°
2026-05-04 15:03 41.64135 19.73903 35109 ft 474 kts 140°
2026-05-04 15:04 41.58986 19.79420 35115 ft 476 kts 140°
2026-05-04 15:04 41.53823 19.84944 35126 ft 476 kts 139°
2026-05-04 15:05 41.48681 19.90430 35136 ft 475 kts 140°
2026-05-04 15:05 41.43524 19.95922 35136 ft 477 kts 139°
2026-05-04 15:06 41.38332 20.01437 35132 ft 477 kts 139°
2026-05-04 15:07 41.30539 20.09699 35123 ft 477 kts 139°
2026-05-04 15:07 41.25333 20.15204 35112 ft 477 kts 139°
2026-05-04 15:08 41.20181 20.20640 35114 ft 478 kts 139°
2026-05-04 15:08 41.14958 20.26137 35116 ft 478 kts 139°
2026-05-04 15:09 41.09739 20.31621 35117 ft 479 kts 139°
2026-05-04 15:09 41.04486 20.37130 35120 ft 479 kts 139°
2026-05-04 15:10 40.96604 20.45371 35117 ft 479 kts 139°
2026-05-04 15:11 40.88758 20.53552 35123 ft 480 kts 139°
2026-05-04 15:11 40.83487 20.59033 35121 ft 479 kts 139°
2026-05-04 15:12 40.78217 20.64500 35126 ft 480 kts 139°
2026-05-04 15:12 40.73006 20.69893 35123 ft 478 kts 140°
2026-05-04 15:13 40.67774 20.75300 35126 ft 480 kts 139°
2026-05-04 15:13 40.62500 20.80737 35129 ft 479 kts 139°
2026-05-04 15:14 40.57289 20.86098 35133 ft 477 kts 139°
2026-05-04 15:14 40.52043 20.91487 35144 ft 478 kts 140°
2026-05-04 15:15 40.46800 20.96886 35131 ft 478 kts 138°
2026-05-04 15:15 40.41712 21.02456 35136 ft 478 kts 138°
2026-05-04 15:16 40.33877 21.10621 35135 ft 477 kts 139°
2026-05-04 15:17 40.26009 21.18733 35131 ft 476 kts 139°
2026-05-04 15:17 40.18160 21.26871 35132 ft 478 kts 139°
2026-05-04 15:18 40.13114 21.32458 35145 ft 478 kts 139°
2026-05-04 15:19 40.05250 21.40516 35130 ft 479 kts 139°
2026-05-04 15:19 39.97406 21.48637 35130 ft 480 kts 139°
2026-05-04 15:20 39.92160 21.54055 35129 ft 479 kts 139°
2026-05-04 15:20 39.87029 21.59340 35122 ft 481 kts 139°
2026-05-04 15:21 39.81769 21.64738 35124 ft 480 kts 139°
2026-05-04 15:22 39.73899 21.72800 35117 ft 481 kts 139°
2026-05-04 15:22 39.65974 21.80892 35116 ft 482 kts 139°
2026-05-04 15:23 39.60666 21.86294 35109 ft 481 kts 139°
2026-05-04 15:23 39.55381 21.91663 35105 ft 483 kts 139°
2026-05-04 15:24 39.44764 22.02423 35099 ft 482 kts 139°
2026-05-04 15:25 39.39487 22.07753 35104 ft 482 kts 139°
2026-05-04 15:26 39.31531 22.15772 35100 ft 484 kts 140°
2026-05-04 15:26 39.23586 22.23750 35098 ft 483 kts 140°
2026-05-04 15:27 39.15607 22.31738 35110 ft 484 kts 140°
2026-05-04 15:28 39.07593 22.39741 35111 ft 485 kts 140°
2026-05-04 15:29 38.99577 22.47724 35115 ft 483 kts 140°
2026-05-04 15:30 38.80938 22.66195 35098 ft 485 kts 140°
2026-05-04 15:31 38.72892 22.74128 35111 ft 484 kts 141°
2026-05-04 15:32 38.59472 22.87310 35102 ft 486 kts 141°
2026-05-04 15:34 38.46043 23.00439 35099 ft 485 kts 141°
2026-05-04 15:34 38.37976 23.08292 35109 ft 485 kts 141°
2026-05-04 15:35 38.29923 23.16109 35100 ft 483 kts 141°
2026-05-04 15:36 38.21871 23.23904 35102 ft 485 kts 141°
2026-05-04 15:36 38.16474 23.29118 35099 ft 484 kts 141°
2026-05-04 15:37 38.11102 23.34296 35108 ft 484 kts 141°
2026-05-04 15:37 38.05744 23.39451 35109 ft 485 kts 141°
2026-05-04 15:38 38.00340 23.44640 35105 ft 484 kts 141°
2026-05-04 15:38 37.94850 23.49657 35105 ft 487 kts 146°
2026-05-04 15:39 37.89178 23.54194 35102 ft 485 kts 148°
2026-05-04 15:40 37.80541 23.60923 35107 ft 486 kts 147°
2026-05-04 15:40 37.74814 23.65381 35095 ft 484 kts 148°
2026-05-04 15:41 37.69067 23.69863 35103 ft 487 kts 148°
2026-05-04 15:41 37.63306 23.74357 35098 ft 485 kts 148°
2026-05-04 15:42 37.57511 23.78875 35102 ft 487 kts 149°
2026-05-04 15:42 37.51693 23.83402 35104 ft 487 kts 148°
2026-05-04 15:43 37.45901 23.87899 35104 ft 488 kts 149°
2026-05-04 15:43 37.40102 23.92396 35099 ft 487 kts 149°
2026-05-04 15:44 37.34312 23.96877 35105 ft 487 kts 149°
2026-05-04 15:44 37.28483 24.01379 35105 ft 488 kts 148°
2026-05-04 15:45 37.22692 24.05846 35107 ft 487 kts 149°
2026-05-04 15:45 37.16883 24.10316 35106 ft 488 kts 149°
2026-05-04 15:46 37.11090 24.14764 35109 ft 486 kts 149°
2026-05-04 15:46 37.05262 24.19231 34902 ft 483 kts 149°
2026-05-04 15:46 37.02421 24.21407 34605 ft 477 kts 149°
2026-05-04 15:47 36.99621 24.23552 34242 ft 473 kts 149°
2026-05-04 15:47 36.96807 24.25703 33740 ft 472 kts 149°
2026-05-04 15:47 36.94011 24.27839 33192 ft 472 kts 149°
2026-05-04 15:47 36.91209 24.29975 32653 ft 471 kts 149°
2026-05-04 15:48 36.88401 24.32116 32126 ft 469 kts 149°
2026-05-04 15:48 36.85705 24.34171 31608 ft 468 kts 148°
2026-05-04 15:48 36.80139 24.38404 30570 ft 464 kts 149°
2026-05-04 15:49 36.77377 24.40502 30042 ft 462 kts 149°
2026-05-04 15:49 36.74643 24.42577 29503 ft 460 kts 148°
2026-05-04 15:49 36.71923 24.44639 28999 ft 458 kts 148°
2026-05-04 15:49 36.69196 24.46704 28479 ft 455 kts 148°
2026-05-04 15:50 36.66507 24.48740 27954 ft 453 kts 148°
2026-05-04 15:50 36.63811 24.50779 27439 ft 450 kts 148°
2026-05-04 15:50 36.61199 24.52752 26934 ft 438 kts 148°
2026-05-04 15:50 36.58624 24.54696 26457 ft 425 kts 148°
2026-05-04 15:51 36.56137 24.56571 25974 ft 414 kts 147°
2026-05-04 15:51 36.53682 24.58423 25534 ft 408 kts 147°
2026-05-04 15:51 36.51263 24.60248 25046 ft 407 kts 147°
2026-05-04 15:51 36.48847 24.62069 24582 ft 405 kts 147°
2026-05-04 15:52 36.46432 24.63888 24120 ft 403 kts 147°
2026-05-04 15:52 36.44033 24.65693 23656 ft 400 kts 147°
2026-05-04 15:52 36.41644 24.67489 23200 ft 398 kts 147°
2026-05-04 15:52 36.39266 24.69275 22734 ft 396 kts 147°
2026-05-04 15:53 36.36933 24.71028 22283 ft 393 kts 148°
2026-05-04 15:53 36.34601 24.72777 21835 ft 391 kts 148°
2026-05-04 15:53 36.32271 24.74524 21387 ft 389 kts 148°
2026-05-04 15:53 36.29959 24.76254 20939 ft 386 kts 148°
2026-05-04 15:54 36.27653 24.77979 20493 ft 384 kts 148°
2026-05-04 15:54 36.25370 24.79687 20053 ft 382 kts 148°
2026-05-04 15:54 36.23106 24.81378 19612 ft 379 kts 148°
2026-05-04 15:54 36.20844 24.83066 19166 ft 377 kts 148°
2026-05-04 15:55 36.18585 24.84751 18724 ft 374 kts 148°
2026-05-04 15:55 36.16382 24.86394 18281 ft 365 kts 148°
2026-05-04 15:55 36.14233 24.87997 17870 ft 353 kts 148°
2026-05-04 15:55 36.12149 24.89550 17509 ft 344 kts 148°
2026-05-04 15:56 36.10099 24.91078 17061 ft 344 kts 148°
2026-05-04 15:56 36.08077 24.92583 16665 ft 341 kts 148°
2026-05-04 15:56 36.06053 24.94090 16281 ft 339 kts 148°
2026-05-04 15:56 36.04022 24.95601 15877 ft 337 kts 148°
2026-05-04 15:57 36.02021 24.97086 15485 ft 334 kts 148°
2026-05-04 15:57 36.00046 24.98551 15098 ft 332 kts 147°
2026-05-04 15:57 35.98058 25.00026 14710 ft 330 kts 147°
2026-05-04 15:57 35.96099 25.01477 14326 ft 328 kts 147°
2026-05-04 15:58 35.94158 25.02915 13949 ft 326 kts 147°
2026-05-04 15:58 35.92207 25.04360 13566 ft 324 kts 147°
2026-05-04 15:58 35.90286 25.05781 13177 ft 322 kts 148°
2026-05-04 15:58 35.88360 25.07205 12797 ft 320 kts 147°
2026-05-04 15:59 35.86450 25.08617 12429 ft 318 kts 148°
2026-05-04 15:59 35.84547 25.10022 12047 ft 316 kts 148°
2026-05-04 15:59 35.82671 25.11407 11685 ft 314 kts 148°
2026-05-04 15:59 35.80793 25.12792 11315 ft 313 kts 148°
2026-05-04 16:00 35.78925 25.14169 10951 ft 311 kts 148°
2026-05-04 16:00 35.77075 25.15533 10573 ft 310 kts 148°
2026-05-04 16:00 35.75220 25.16900 10204 ft 308 kts 148°
2026-05-04 16:00 35.73362 25.18267 9837 ft 306 kts 148°
2026-05-04 16:01 35.71555 25.19597 9484 ft 305 kts 148°
2026-05-04 16:01 35.69731 25.20938 9125 ft 304 kts 148°
2026-05-04 16:01 35.67919 25.22269 8759 ft 302 kts 148°
2026-05-04 16:01 35.66103 25.23603 8317 ft 304 kts 148°
2026-05-04 16:02 35.64280 25.24941 7949 ft 303 kts 148°
2026-05-04 16:02 35.62468 25.26271 7578 ft 302 kts 148°
2026-05-04 16:02 35.58905 25.28882 7042 ft 291 kts 148°
2026-05-04 16:03 35.57161 25.30160 6925 ft 289 kts 148°
2026-05-04 16:03 35.55402 25.31450 6547 ft 297 kts 148°
2026-05-04 16:03 35.53645 25.32737 6183 ft 296 kts 148°
2026-05-04 16:03 35.51864 25.34039 5829 ft 295 kts 148°
2026-05-04 16:04 35.50111 25.35320 5459 ft 294 kts 148°
2026-05-04 16:04 35.46665 25.37837 4952 ft 277 kts 148°
2026-05-04 16:04 35.45035 25.39026 4870 ft 266 kts 148°
2026-05-04 16:05 35.43460 25.40138 4802 ft 255 kts 149°
2026-05-04 16:05 35.41946 25.41174 4727 ft 243 kts 150°
2026-05-04 16:05 35.39117 25.43077 4572 ft 221 kts 154°
2026-05-04 16:06 35.37700 25.43642 4493 ft 208 kts 179°
2026-05-04 16:06 35.34598 25.40789 3683 ft 197 kts 249°
2026-05-04 16:07 35.34040 25.39261 3271 ft 196 kts 251°
2026-05-04 16:07 35.32740 25.34779 2453 ft 164 kts 278°
2026-05-04 16:08 35.32891 25.33412 2354 ft 158 kts 282°
2026-05-04 16:08 35.33189 25.29478 1968 ft 149 kts 278°
2026-05-04 16:09 35.33368 25.26990 1487 ft 141 kts 278°
2026-05-04 16:09 35.33535 25.24574 1062 ft 142 kts 278°
2026-05-04 16:10 35.33704 25.22185 638 ft 140 kts 278°
2026-05-04 16:11 35.33929 25.18709 100 ft 134 kts 277°
2026-05-04 16:11 35.33998 25.17709 89 ft 92 kts 274°
2026-05-04 16:12 35.34062 25.16664 86 ft 10 kts 240°
2026-05-04 16:12 35.33957 25.16839 91 ft 14 kts 94°
2026-05-04 16:13 35.33938 25.17116 90 ft 17 kts 95°
2026-05-04 16:13 35.33922 25.17342 99 ft 7 kts 95°
2026-05-04 16:14 35.33915 25.17452 104 ft 5 kts 94°
2026-05-04 16:14 35.33874 25.17500 109 ft 3 kts 184°
2026-05-04 16:15 35.33873 25.17431 106 ft 2 kts 316°
2026-05-04 16:16 35.33872 25.17433 106 ft 0 kts 316°